Clarion
Sunday 2:35 PM
Temperature75° (75°/55°)
Dew Point46°
Relative Humidity36
%
Visibility10
mi
Pressure1023.7
mb
Wind DirectionS
190°
Wind Speed20
mph
(G28)
Precipitation Today0.00"

Last 30 Observations

Time PresWx Temp DP Feels RH% Vsby Pressure Ceiling Direction Speed 1h Precip
2:15 PM 73° 46° 38
%
10
mi
1024.1
mb
9,000
ft
SSW
200°
15
mph
0.00"
1:55 PM 73° 45° 36
%
10
mi
1024.4
mb
S
190°
16
mph
(G24)
0.00"
1:35 PM 73° 45° 36
%
10
mi
1024.7
mb
S
190°
17
mph
(G23)
0.00"
1:15 PM 73° 45° 36
%
10
mi
1024.7
mb
10,000
ft
S
190°
17
mph
0.00"
12:55 PM 73° 45° 36
%
10
mi
1025.1
mb
10,000
ft
S
180°
16
mph
0.00"
12:35 PM 73° 45° 36
%
10
mi
1025.1
mb
10,000
ft
S
180°
14
mph
0.00"
12:15 PM 72° 45° 38
%
10
mi
1025.1
mb
11,000
ft
SSE
160°
15
mph
0.00"
11:55 AM 72° 45° 38
%
10
mi
1025.4
mb
11,000
ft
S
170°
17
mph
0.00"
11:35 AM 70° 45° 40
%
10
mi
1025.7
mb
8,000
ft
S
170°
16
mph
0.00"
11:15 AM 70° 45° 40
%
10
mi
1025.7
mb
8,000
ft
S
180°
14
mph
0.00"
10:55 AM 68° 45° 43
%
10
mi
1025.7
mb
8,000
ft
S
170°
17
mph
0.00"
10:35 AM 66° 45° 46
%
10
mi
1025.7
mb
8,000
ft
SSE
160°
18
mph
0.00"
10:15 AM 66° 45° 46
%
10
mi
1026.1
mb
SSE
160°
18
mph
0.00"
9:55 AM 64° 45° 49
%
10
mi
1026.4
mb
8,000
ft
SSE
160°
15
mph
0.00"
9:35 AM 64° 45° 49
%
10
mi
1026.4
mb
7,500
ft
SSE
150°
11
mph
0.00"
9:15 AM 63° 43° 48
%
10
mi
1026.8
mb
8,000
ft
SE
140°
15
mph
0.00"
8:55 AM 63° 43° 48
%
10
mi
1026.4
mb
8,500
ft
SE
140°
14
mph
0.00"
8:35 AM 63° 43° 48
%
10
mi
1026.4
mb
9,000
ft
SE
140°
15
mph
0.00"
8:15 AM 61° 41° 48
%
10
mi
1026.4
mb
9,500
ft
SE
140°
14
mph
0.00"
7:55 AM 61° 43° 51
%
10
mi
1026.1
mb
9,000
ft
SE
130°
15
mph
0.00"
7:35 AM 59° 41° 51
%
10
mi
1026.1
mb
SE
130°
14
mph
0.00"
7:15 AM 59° 41° 51
%
10
mi
1025.7
mb
ESE
120°
14
mph
0.00"
6:55 AM 57° 41° 55
%
10
mi
1025.4
mb
11,000
ft
SE
130°
11
mph
0.00"
6:35 AM 57° 41° 55
%
10
mi
1025.7
mb
10,000
ft
ESE
120°
13
mph
0.00"
6:15 AM 57° 41° 55
%
10
mi
1025.4
mb
10,000
ft
ESE
110°
11
mph
0.00"
5:55 AM 57° 41° 55
%
10
mi
1025.1
mb
10,000
ft
ESE
120°
11
mph
0.00"
5:35 AM 55° 41° 58
%
10
mi
1024.7
mb
ESE
120°
13
mph
0.00"
5:15 AM 57° 41° 55
%
10
mi
1024.7
mb
ESE
120°
13
mph
0.00"
4:55 AM 57° 41° 55
%
10
mi
1024.7
mb
5,500
ft
ESE
120°
13
mph
0.00"
4:35 AM 57° 43° 59
%
10
mi
1024.7
mb
5,000
ft
ESE
120°
14
mph
0.00"